GW0020 Weather Reports


Display with metric or nautical units.
time (UTC)temp
F
wind
direction
speed
MPH
gust
MPH
rain 1hr
in
rain 24hr
in
rain mn
in
humidity
%
barometer
mb
20260509201556 90 131 0.0 2.0 0.00 0.02 0.02 59 1010.5
20260509200056 89 330 0.0 2.0 0.00 0.02 0.02 57 1010.8
20260509194554 87 352 0.0 3.0 0.00 0.02 0.02 62 1010.8
20260509193059 85 165 0.0 6.0 0.00 0.02 0.02 63 1010.8
20260509191600 84 0 0.0 0.0 0.00 0.02 0.02 65 1010.9
20260509190056 83 0 0.0 2.0 0.00 0.02 0.02 69 1011.2
20260509184558 81 0 0.0 0.0 0.00 0.02 0.02 73 1011.5
20260509183056 79 0 0.0 0.0 0.00 0.02 0.02 76 1011.7
20260509181551 79 0 0.0 0.0 0.01 0.02 0.02 79 1011.9
20260509180058 79 0 0.0 0.0 0.02 0.02 0.02 78 1012.2
20260509174612 80 0 0.0 0.0 0.02 0.02 0.02 79 1011.9
20260509173051 79 0 0.0 0.0 0.02 0.02 0.02 84 1012.1
20260509171543 80 0 0.0 0.0 0.01 0.01 0.01 77 1012.5
20260509170051 80 0 0.0 0.0 0.00 0.00 0.00 73 1012.7
20260509164553 83 0 0.0 0.0 0.00 0.00 0.00 70 1012.5
20260509163051 83 0 0.0 0.0 0.00 0.00 0.00 72 1012.4
20260509161549 80 0 0.0 0.0 0.00 0.00 0.00 77 1012.4
20260509160051 80 0 0.0 0.0 0.00 0.00 0.00 77 1012.3
20260509154659 82 0 0.0 0.0 0.00 0.00 0.00 73 1012.1
20260509153100 83 0 0.0 0.0 0.00 0.00 0.00 74 1011.6
20260509151558 81 0 0.0 0.0 0.00 0.00 0.00 74 1011.7
20260509150201 81 0 0.0 0.0 0.00 0.00 0.00 75 1011.7
20260509144559 80 0 0.0 0.0 0.00 0.00 0.00 77 1011.6
20260509143055 78 0 0.0 2.0 0.00 0.00 0.00 80 1011.2
20260509141548 77 167 0.0 3.0 0.00 0.00 0.00 82 1011.4
20260509140051 76 211 0.0 3.0 0.00 0.00 0.00 84 1011.1
20260509134552 75 160 1.0 3.0 0.00 0.00 0.00 87 1011.1
20260509133050 73 191 1.0 3.0 0.00 0.00 0.00 89 1010.8
20260509131549 72 0 0.0 3.0 0.00 0.00 0.00 91 1010.9
20260509130104 71 170 0.0 1.0 0.00 0.00 0.00 92 1011.0
20260509124553 71 0 0.0 0.0 0.00 0.00 0.00 92 1011.2
20260509123054 71 0 0.0 1.0 0.00 0.00 0.00 92 1011.3
20260509121601 70 142 0.0 0.0 0.00 0.00 0.00 92 1011.5
20260509120051 70 0 0.0 1.0 0.00 0.00 0.00 92 1011.7
20260509114558 70 0 0.0 1.0 0.00 0.00 0.00 92 1011.9
20260509113058 70 0 0.0 0.0 0.00 0.00 0.00 92 1012.2
20260509111551 70 0 0.0 0.0 0.00 0.00 0.00 92 1012.4
20260509110056 71 0 0.0 3.0 0.00 0.00 0.00 92 1012.9
20260509104552 71 0 0.0 1.0 0.00 0.00 0.00 92 1012.9
20260509103059 71 0 0.0 0.0 0.00 0.00 0.00 92 1013.0
20260509101600 71 16 0.0 2.0 0.00 0.00 0.00 92 1012.6
20260509100050 71 0 1.0 2.0 0.00 0.00 0.00 92 1012.5
20260509094556 71 0 0.0 2.0 0.00 0.00 0.00 92 1011.9
20260509093052 71 0 0.0 0.0 0.00 0.00 0.00 91 1011.7
20260509091544 71 0 0.0 0.0 0.00 0.00 0.00 90 1010.9
20260509090052 71 0 0.0 0.0 0.00 0.00 0.00 90 1011.0
20260509084550 72 0 0.0 0.0 0.00 0.00 0.00 90 1011.4
20260509083055 72 0 0.0 0.0 0.00 0.00 0.00 89 1011.7
20260509081547 72 0 0.0 0.0 0.00 0.00 0.00 89 1011.7
20260509080053 72 0 0.0 0.0 0.00 0.00 0.00 89 1011.7
20260509074546 72 0 0.0 0.0 0.00 0.00 0.00 89 1011.9
20260509073051 72 0 0.0 0.0 0.00 0.00 0.00 88 1012.0
20260509071548 72 0 0.0 1.0 0.00 0.00 0.00 88 1012.2
20260509070052 72 0 0.0 1.0 0.00 0.00 0.00 88 1012.1
20260509064549 72 0 0.0 0.0 0.00 0.00 0.00 88 1012.0
20260509063051 72 0 0.0 0.0 0.00 0.00 0.00 87 1012.0
20260509061553 73 0 0.0 1.0 0.00 0.00 0.00 87 1012.1
20260509060104 72 0 0.0 3.0 0.00 0.00 0.00 87 1011.8
20260509054559 72 142 0.0 2.0 0.00 0.00 0.00 87 1011.9
20260509053110 72 165 0.0 1.0 0.00 0.00 0.00 87 1010.9
20260509051553 72 0 0.0 1.0 0.00 0.00 0.00 87 1010.4
20260509050049 72 0 0.0 1.0 0.00 0.00 0.00 87 1010.3
20260509044628 72 0 0.0 2.0 0.00 0.00 0.00 86 1010.5
20260509043130 72 162 0.0 3.0 0.00 0.00 0.00 86 1010.9
20260509041545 72 0 0.0 0.0 0.00 0.00 0.00 86 1010.9
20260509040059 72 0 0.0 0.0 0.00 0.00 0.00 86 1011.2
20260509034554 72 0 0.0 0.0 0.00 0.00 0.00 86 1011.2
20260509033052 72 0 0.0 0.0 0.00 0.00 0.00 86 1011.0
20260509031559 72 0 0.0 1.0 0.00 0.00 0.00 85 1010.6
20260509030112 73 169 0.0 2.0 0.00 0.00 0.00 84 1010.5
20260509024552 73 0 0.0 2.0 0.00 0.00 0.00 84 1010.4
20260509023055 73 0 0.0 0.0 0.00 0.00 0.00 84 1010.4
20260509021551 73 0 0.0 0.0 0.00 0.00 0.00 83 1010.2
20260509014700 74 0 0.0 0.0 0.00 0.00 0.00 82 1009.8
20260509014604 74 0 0.0 0.0 0.00 0.00 0.00 82 1009.8
20260509013058 74 0 0.0 0.0 0.00 0.00 0.00 82 1009.7
20260509011601 74 0 0.0 2.0 0.00 0.00 0.00 81 1009.6
20260509010057 75 131 0.0 2.0 0.00 0.00 0.00 80 1009.6
20260509004556 75 120 0.0 2.0 0.00 0.00 0.00 79 1009.7
20260509003053 76 0 0.0 1.0 0.00 0.00 0.00 78 1009.6
20260509001553 76 0 0.0 1.0 0.00 0.00 0.00 78 1009.6
20260509000049 76 0 0.0 2.0 0.00 0.00 0.00 78 1009.8
20260508234550 75 120 0.0 2.0 0.00 0.00 0.00 78 1009.9
20260508233047 75 0 0.0 3.0 0.00 0.00 0.00 78 1009.8
20260508231548 76 0 0.0 3.0 0.00 0.00 0.00 78 1009.6
20260508230044 76 0 0.0 1.0 0.00 0.00 0.00 77 1009.7
20260508224622 76 0 0.0 2.0 0.00 0.00 0.00 76 1009.9
20260508223051 77 137 0.0 2.0 0.00 0.00 0.00 75 1009.8
20260508221551 77 0 0.0 2.0 0.00 0.00 0.00 75 1009.9
20260508220051 78 323 0.0 4.0 0.00 0.00 0.00 73 1010.0
20260508214551 78 0 0.0 2.0 0.00 0.00 0.00 72 1009.9
20260508213053 80 167 0.0 3.0 0.00 0.00 0.00 70 1010.0
20260508211552 80 169 0.0 5.0 0.00 0.00 0.00 69 1010.4
20260508210050 80 132 1.0 4.0 0.00 0.00 0.00 69 1010.6
20260508204546 80 20 0.0 3.0 0.00 0.00 0.00 68 1011.0
20260508203054 80 141 1.0 5.0 0.00 0.00 0.00 67 1010.9